(175670) = 1994 PN32

Discovered at La Silla on 1994-08-12 by E. W. Elst.

Orbit

Orbit type: Main Belt

Note: WebGL enabled browser required.

epoch2023-09-13.0
epoch JD2460200.5
perihelion date2022-11-24.30073
perihelion JD2459907.80073
argument of perihelion (°)39.44496
ascending node (°)324.54802
inclination (°)15.59784
eccentricity0.1937142
perihelion distance (AU)2.5385358
Tisserand w.r.t. Jupiter3.1
ΔV w.r.t. Earth (km/sec)11.1
semimajor axis (AU)3.1484317
mean anomaly (°)51.63974
mean daily motion (°/day)0.17642590
aphelion distance (AU)3.758
period (years)5.59
P-vector [x]0.98400143
P-vector [y]-0.02155188
P-vector [z]0.17685222
Q-vector [x]-0.08612956
Q-vector [y]0.81140490
Q-vector [z]0.57810362
absolute magnitude15.13
phase slope0.15
uncertainty0
referenceMPEC 2024-C06
observations used680
oppositions16
arc length (days)10764
first opposition used1994
last opposition used2024
residual rms (arc-secs)0.67
perturbers coarse indicatorM-v
perturbers precise indicator003Ek
first observation date used1994-08-12.0
last observation date used2024-01-31.0
computer nameMPCLINUX
JD of orbit computation2455899.795630
perihelion JD uncertainty (days)1.7541E-04
argument of perihelion uncertainty (°)5.5004E-05
ascending node uncertainty (°)3.7457E-05
inclination uncertainty (°)1.6985E-05
eccentricity uncertainty 1.4077E-07
perihelion distance uncertainty (AU)4.3879E-07
Minimum Orbit Intersection Distances (in AU)
for orbit epoch: 2460200.5, reference: E2024-BE5
Mercury2.18694
Venus1.83561
Earth1.55372
Mars1.19591
Jupiter1.7668
Saturn5.67954
Uranus14.755
Neptune26.8696

Observations

689 total observations over interval: 1994 08 12.31667 – 2024 01 31.370881
These data are available for download (format description).

Date (UT) J2000 RA J2000 Dec Magn Location Ref
1994 08 12.31667 23 00 51.54 -01 09 04.5 18.7   809 – European Southern Observatory, La Silla MPC 24519
1994 08 12.32847 23 00 50.94 -01 09 02.1   809 – European Southern Observatory, La Silla MPC 24519
1994 08 12.34028 23 00 50.40 -01 08 59.0   809 – European Southern Observatory, La Silla MPC 24519
1994 08 13.22986 23 00 12.05 -01 06 10.9   809 – European Southern Observatory, La Silla MPC 24519
1994 08 13.24167 23 00 11.46 -01 06 07.8   809 – European Southern Observatory, La Silla MPC 24519
1994 08 13.25347 23 00 10.90 -01 06 06.4   809 – European Southern Observatory, La Silla MPC 24519
1994 09 05.21250 22 40 03.40 -00 21 03.5 18.7   809 – European Southern Observatory, La Silla MPC 24871
1994 09 05.22569 22 40 02.51 -00 21 03.1   809 – European Southern Observatory, La Silla MPC 24871
1994 09 05.23889 22 40 01.80 -00 21 03.0   809 – European Southern Observatory, La Silla MPC 24871
1994 09 06.17222 22 39 09.25 -00 20 10.3   809 – European Southern Observatory, La Silla MPC 24871
1994 09 06.18542 22 39 08.46 -00 20 09.6   809 – European Southern Observatory, La Silla MPC 24871
1994 09 06.19861 22 39 07.67 -00 20 09.3   809 – European Southern Observatory, La Silla MPC 24871
2000 10 04.34404 01 31 43.00 +32 26 48.4 19.0   704 – Lincoln Laboratory ETS, New Mexico MPS 35334
2000 10 04.35950 01 31 42.09 +32 26 49.9 18.9   704 – Lincoln Laboratory ETS, New Mexico MPS 35334
2000 10 04.38986 01 31 40.41 +32 26 53.1 18.8   704 – Lincoln Laboratory ETS, New Mexico MPS 35334
2000 10 04.40489 01 31 39.56 +32 26 55.0 18.8   704 – Lincoln Laboratory ETS, New Mexico MPS 35334
2000 11 16.07649 00 56 27.21 +30 19 57.5 18.9 R 699 – Lowell Observatory-LONEOS MPS 42770
2000 11 16.09213 00 56 26.94 +30 19 51.9   699 – Lowell Observatory-LONEOS MPS 42770
2000 11 16.10782 00 56 26.49 +30 19 46.7   699 – Lowell Observatory-LONEOS MPS 42770
2000 11 16.12364 00 56 26.03 +30 19 40.3   699 – Lowell Observatory-LONEOS MPS 42770
2000 11 30.15830 00 53 23.97 +28 58 49.9 19.7   704 – Lincoln Laboratory ETS, New Mexico MPS 35334
2000 11 30.17349 00 53 23.89 +28 58 43.8 19.8   704 – Lincoln Laboratory ETS, New Mexico MPS 35334
2000 11 30.19060 00 53 23.98 +28 58 39.6 19.3   704 – Lincoln Laboratory ETS, New Mexico MPS 35334
2005 06 30.35791 21 45 32.29 -20 50 31.8 18.8 R 699 – Lowell Observatory-LONEOS MPS 136817
2005 06 30.37803 21 45 31.85 -20 50 29.0   699 – Lowell Observatory-LONEOS MPS 136817
2005 06 30.39815 21 45 31.51 -20 50 26.6   699 – Lowell Observatory-LONEOS MPS 136817
2005 06 30.41827 21 45 31.06 -20 50 25.5   699 – Lowell Observatory-LONEOS MPS 136817
2005 08 02.22386 21 23 25.44 -20 09 35.8 18.8   704 – Lincoln Laboratory ETS, New Mexico MPS 138790
2005 08 02.24724 21 23 24.13 -20 09 33.7 18.1   704 – Lincoln Laboratory ETS, New Mexico MPS 138790
2005 08 02.25918 21 23 23.39 -20 09 33.4 18.6   704 – Lincoln Laboratory ETS, New Mexico MPS 138790
2005 08 02.27086 21 23 22.67 -20 09 32.3 18.2   704 – Lincoln Laboratory ETS, New Mexico MPS 138791
2005 08 06.21722 21 19 32.81 -20 03 32.5 19.0   704 – Lincoln Laboratory ETS, New Mexico MPS 139195
2005 08 06.22907 21 19 32.07 -20 03 32.1 19.2   704 – Lincoln Laboratory ETS, New Mexico MPS 139195
2005 08 06.24094 21 19 31.33 -20 03 30.8 19.0   704 – Lincoln Laboratory ETS, New Mexico MPS 139195
2005 08 06.25274 21 19 30.63 -20 03 29.4 18.9   704 – Lincoln Laboratory ETS, New Mexico MPS 139195
2005 08 27.58531 20 59 24.07 -19 13 16.5 18.8 V E12 – Siding Spring Survey MPS 139976
2005 08 27.59381 20 59 23.64 -19 13 14.0 19.0 V E12 – Siding Spring Survey MPS 139976
2005 08 27.60235 20 59 23.17 -19 13 12.6 18.5 V E12 – Siding Spring Survey MPS 139976
2005 08 27.61106 20 59 22.66 -19 13 12.6 18.3 V E12 – Siding Spring Survey MPS 139976
2005 08 29.18372 20 58 06.62 -19 08 14.6 18.1 R 699 – Lowell Observatory-LONEOS MPS 139976
2005 08 29.18650 20 58 06.42 -19 08 14.4 19.1   704 – Lincoln Laboratory ETS, New Mexico MPS 139976
2005 08 29.19778 20 58 05.93 -19 08 11.4 19.7   704 – Lincoln Laboratory ETS, New Mexico MPS 139976
2005 08 29.20005 20 58 05.88 -19 08 10.7   699 – Lowell Observatory-LONEOS MPS 139976
2005 08 29.20905 20 58 05.32 -19 08 09.5 19.5   704 – Lincoln Laboratory ETS, New Mexico MPS 139976
2005 08 29.21646 20 58 05.02 -19 08 08.0   699 – Lowell Observatory-LONEOS MPS 139976
2005 08 29.22030 20 58 04.78 -19 08 06.7 19.6   704 – Lincoln Laboratory ETS, New Mexico MPS 139976
2005 08 29.23154 20 58 04.26 -19 08 04.3 19.4   704 – Lincoln Laboratory ETS, New Mexico MPS 139976
2005 08 29.23290 20 58 04.24 -19 08 04.4   699 – Lowell Observatory-LONEOS MPS 139976
2005 09 08.51959 20 51 03.13 -18 30 33.1 19.2 V E12 – Siding Spring Survey MPS 140901
2005 09 08.52839 20 51 02.80 -18 30 30.8 19.3 V E12 – Siding Spring Survey MPS 140901
2005 09 08.53731 20 51 02.44 -18 30 28.0 18.5 V E12 – Siding Spring Survey MPS 140901
2005 09 08.54609 20 51 02.23 -18 30 26.1 19.1 V E12 – Siding Spring Survey MPS 140901
2005 09 17.12841 20 47 13.26 -17 53 47.5 18.8 R 644 – Palomar Mountain/NEAT MPS 143225
2005 09 17.14974 20 47 12.81 -17 53 41.7 18.6 R 644 – Palomar Mountain/NEAT MPS 143225
2005 09 17.17465 20 47 12.29 -17 53 35.0 18.8 R 644 – Palomar Mountain/NEAT MPS 143225
2005 09 30.12139 20 45 17.78 -16 50 13.4 19.8 V G96 – Mt. Lemmon Survey MPS 143225
2005 09 30.12589 20 45 17.78 -16 50 12.3 19.8 V G96 – Mt. Lemmon Survey MPS 143225
2005 09 30.13038 20 45 17.74 -16 50 10.8 19.9 V G96 – Mt. Lemmon Survey MPS 143225
2005 09 30.13488 20 45 17.74 -16 50 09.2 19.8 V G96 – Mt. Lemmon Survey MPS 143225
2005 10 27.09618 20 55 23.55 -14 11 37.5 20.1 V G96 – Mt. Lemmon Survey MPS 145751
2005 10 27.10172 20 55 23.80 -14 11 35.2 19.9 V G96 – Mt. Lemmon Survey MPS 145751
2005 10 27.10727 20 55 24.02 -14 11 33.2 20.1 V G96 – Mt. Lemmon Survey MPS 145751
2005 10 27.11295 20 55 24.24 -14 11 31.0 20.0 V G96 – Mt. Lemmon Survey MPS 145751
2005 10 30.09516 20 57 31.53 -13 51 47.9 19.5 V G96 – Mt. Lemmon Survey MPS 147141
2005 10 30.10046 20 57 31.71 -13 51 45.8 19.5 V G96 – Mt. Lemmon Survey MPS 147141
2005 10 30.10579 20 57 31.96 -13 51 43.5 19.5 V G96 – Mt. Lemmon Survey MPS 147141
2005 10 30.11108 20 57 32.22 -13 51 41.5 19.8 V G96 – Mt. Lemmon Survey MPS 147141
2006 12 11.24345 04 45 55.22 +44 22 48.8 19.4   704 – Lincoln Laboratory ETS, New Mexico MPS 191720
2006 12 11.25568 04 45 54.33 +44 22 46.1 19.7   704 – Lincoln Laboratory ETS, New Mexico MPS 191720
2006 12 11.26768 04 45 53.55 +44 22 42.8 19.8   704 – Lincoln Laboratory ETS, New Mexico MPS 191720
2006 12 11.27992 04 45 52.70 +44 22 38.7 20.3   704 – Lincoln Laboratory ETS, New Mexico MPS 191720
2006 12 11.29227 04 45 51.83 +44 22 33.9 19.9   704 – Lincoln Laboratory ETS, New Mexico MPS 191720
2008 01 10.44745 10 25 04.22 +10 38 38.0 21.4 V G96 – Mt. Lemmon Survey MPS 233281
2008 01 10.45354 10 25 04.04 +10 38 37.8 21.2 V G96 – Mt. Lemmon Survey MPS 233281
2008 01 10.45962 10 25 03.86 +10 38 37.7 21.2 V G96 – Mt. Lemmon Survey MPS 233281
2008 01 10.46581 10 25 03.72 +10 38 37.5 21.3 V G96 – Mt. Lemmon Survey MPS 233281
2008 01 31.37208 10 12 12.63 +10 47 10.6 20.6 V G96 – Mt. Lemmon Survey MPS 235258
2008 01 31.37990 10 12 12.27 +10 47 11.3 20.1 V G96 – Mt. Lemmon Survey MPS 235258
2008 01 31.38782 10 12 11.88 +10 47 11.5 20.6 V G96 – Mt. Lemmon Survey MPS 235258
2008 01 31.39576 10 12 11.52 +10 47 12.6 20.5 V G96 – Mt. Lemmon Survey MPS 235258
2008 02 11.28604 10 03 17.52 +11 01 02.9 19.8   704 – Lincoln Laboratory ETS, New Mexico MPS 237332
2008 02 11.29831 10 03 16.84 +11 01 03.1 20.0   704 – Lincoln Laboratory ETS, New Mexico MPS 237332
2008 02 11.31071 10 03 16.22 +11 01 05.1 20.0   704 – Lincoln Laboratory ETS, New Mexico MPS 237332
2008 02 11.32312 10 03 15.61 +11 01 05.8 19.7   704 – Lincoln Laboratory ETS, New Mexico MPS 237332
2008 02 13.17111 10 01 40.86 +11 03 43.5 20.4 V 691 – Steward Observatory, Kitt Peak-Spacewatch MPS 237332
2008 02 13.18876 10 01 39.93 +11 03 45.1 20.6 V 691 – Steward Observatory, Kitt Peak-Spacewatch MPS 237332
2008 02 13.20642 10 01 39.02 +11 03 46.7 20.6 V 691 – Steward Observatory, Kitt Peak-Spacewatch MPS 237332
2008 02 28.19860 09 48 57.56 +11 24 34.1 20.5 V G96 – Mt. Lemmon Survey MPS 240553
